CW5752 Weather Reports


time (UTC)temp
C
wind
direction
speed
KPH
gust
KPH
rain 1hr
cm
rain 24hr
cm
rain mn
cm
humidity
%
barometer
mb
20260510194521 21 332 3.2 8.0 0.00 0.00 0.00 45 1017.8
20260510193521 22 339 3.2 12.9 0.00 0.00 0.00 47 1017.8
20260510192520 22 306 3.2 9.7 0.00 0.00 0.00 43 1017.8
20260510191520 22 292 3.2 8.0 0.00 0.00 0.00 49 1017.8
20260510190535 22 317 1.6 6.4 0.00 0.00 0.00 46 1017.7
20260510185521 23 316 0.0 11.3 0.00 0.00 0.00 44 1017.6
20260510184520 23 319 1.6 6.4 0.00 0.00 0.00 46 1017.7
20260510183520 23 318 0.0 4.8 0.00 0.00 0.00 45 1017.6
20260510182520 23 314 1.6 9.7 0.00 0.00 0.00 44 1017.6
20260510181520 22 309 1.6 8.0 0.00 0.00 0.00 48 1017.6
20260510180515 22 341 3.2 12.9 0.00 0.00 0.00 48 1017.5
20260510175515 22 349 3.2 11.3 0.00 0.00 0.00 48 1017.6
20260510174520 22 324 1.6 9.7 0.00 0.00 0.00 49 1017.6
20260510173520 22 325 1.6 9.7 0.00 0.00 0.00 50 1017.7
20260510172520 22 329 3.2 11.3 0.00 0.00 0.00 50 1017.7
20260510171539 22 316 3.2 11.3 0.00 0.00 0.00 47 1017.8
20260510170520 22 334 3.2 9.7 0.00 0.00 0.00 53 1017.8
20260510165516 22 335 3.2 11.3 0.00 0.00 0.00 52 1017.9
20260510164601 21 334 3.2 8.0 0.00 0.00 0.00 56 1018.0
20260510163521 21 317 1.6 8.0 0.00 0.00 0.00 52 1018.0
20260510162520 21 323 1.6 9.7 0.00 0.00 0.00 57 1018.1
20260510161520 21 319 3.2 8.0 0.00 0.00 0.00 57 1018.2
20260510160520 20 262 1.6 6.4 0.00 0.00 0.00 59 1018.2
20260510155540 18 260 0.0 4.8 0.00 0.00 0.00 64 1017.9
20260510154515 19 259 0.0 4.8 0.00 0.00 0.00 64 1017.6
20260510153601 19 259 0.0 4.8 0.00 0.00 0.00 63 1017.5
20260510152520 18 257 0.0 3.2 0.00 0.00 0.00 68 1017.5
20260510151520 18 333 0.0 3.2 0.00 0.00 0.00 69 1017.4
20260510150540 18 333 0.0 3.2 0.00 0.00 0.00 68 1017.2
20260510145520 18 333 0.0 6.4 0.00 0.00 0.00 69 1017.0
20260510144543 17 333 0.0 8.0 0.00 0.00 0.00 69 1016.9
20260510143520 17 333 0.0 4.8 0.00 0.00 0.00 69 1016.6
20260510142542 17 333 0.0 4.8 0.00 0.00 0.00 70 1016.5
20260510141522 17 74 0.0 8.0 0.00 0.00 0.00 71 1016.1
20260510140520 17 348 1.6 6.4 0.00 0.00 0.00 71 1016.3
20260510135520 17 330 0.0 6.4 0.00 0.00 0.00 73 1016.3
20260510134520 17 329 0.0 4.8 0.00 0.00 0.00 73 1016.2
20260510133522 17 344 1.6 11.3 0.00 0.00 0.00 74 1016.1
20260510132522 17 336 3.2 9.7 0.00 0.00 0.00 75 1016.2
20260510131522 17 335 3.2 12.9 0.00 0.00 0.00 76 1016.2
20260510130520 17 322 0.0 8.0 0.00 0.00 0.00 78 1016.2
20260510125523 17 328 0.0 6.4 0.00 0.00 0.00 82 1016.2
20260510124517 16 278 0.0 4.8 0.00 0.00 0.00 85 1015.9
20260510123522 16 277 0.0 3.2 0.00 0.00 0.00 86 1015.6
20260510122522 16 0.0 0.0 0.00 0.00 0.00 87 1015.5
20260510121523 16 0.0 1.6 0.00 0.00 0.00 88 1015.4
20260510120522 15 0.0 1.6 0.00 0.00 0.00 88 1015.2
20260510115522 15 0.0 1.6 0.00 0.00 0.00 88 1015.1
20260510114517 15 277 0.0 1.6 0.00 0.00 0.00 88 1014.9
20260510113517 15 277 0.0 3.2 0.00 0.00 0.00 88 1014.7
20260510112522 15 0.0 0.0 0.00 0.00 0.00 89 1014.7
20260510111522 14 0.0 0.0 0.00 0.00 0.00 89 1014.4
20260510110543 14 0.0 0.0 0.00 0.00 0.00 88 1014.2
20260510105542 15 0.0 0.0 0.00 0.00 0.00 88 1013.9
20260510104523 15 0.0 0.0 0.00 0.00 0.00 87 1013.8
20260510103517 15 0.0 1.6 0.00 0.00 0.00 86 1013.7
20260510102520 15 278 0.0 3.2 0.00 0.00 0.00 86 1013.6
20260510101522 15 0.0 0.0 0.00 0.00 0.00 86 1013.4
20260510100522 15 0.0 0.0 0.00 0.00 0.00 86 1013.3
20260510095523 15 0.0 0.0 0.00 0.00 0.00 87 1013.3
20260510094522 15 0.0 0.0 0.00 0.00 0.00 88 1013.2
20260510093522 15 0.0 0.0 0.00 0.00 0.00 87 1013.0
20260510092517 15 0.0 0.0 0.00 0.00 0.00 86 1012.7
20260510091522 15 0.0 0.0 0.00 0.00 0.00 85 1012.5
20260510090522 16 0.0 0.0 0.00 0.00 0.00 84 1012.3
20260510085522 16 0.0 0.0 0.00 0.00 0.00 84 1012.3
20260510084522 16 0.0 0.0 0.00 0.00 0.00 84 1012.3
20260510083522 16 0.0 0.0 0.00 0.00 0.00 83 1012.1
20260510082517 16 0.0 1.6 0.00 0.00 0.00 83 1012.1
20260510081537 16 0.0 0.0 0.00 0.00 0.00 80 1012.1
20260510080522 16 0.0 0.0 0.00 0.00 0.00 81 1012.3
20260510075522 16 0.0 0.0 0.00 0.03 0.00 81 1012.6
20260510074522 17 0.0 0.0 0.00 0.03 0.00 79 1012.8
20260510073542 17 278 0.0 1.6 0.00 0.03 0.00 78 1012.7
20260510072522 17 278 0.0 4.8 0.00 0.03 0.00 77 1012.8
20260510071537 17 278 0.0 9.7 0.00 0.10 0.00 76 1012.6
20260510070522 17 295 0.0 6.4 0.00 0.15 0.00 74 1012.7
20260510065522 17 294 1.6 8.0 0.00 0.18 0.00 74 1013.0
20260510064522 17 294 1.6 3.2 0.00 0.33 0.00 74 1012.9
20260510063522 18 294 0.0 6.4 0.00 0.43 0.00 72 1012.7
20260510062522 17 286 1.6 9.7 0.00 0.51 0.00 72 1012.6
20260510061522 17 282 4.8 11.3 0.00 0.69 0.00 71 1012.6
20260510060517 16 313 1.6 11.3 0.00 0.76 0.00 73 1012.1
20260510055522 17 183 1.6 6.4 0.00 0.76 0.00 71 1011.6
20260510054542 17 180 0.0 4.8 0.00 0.76 0.00 70 1011.1
20260510053522 17 182 0.0 3.2 0.00 0.76 0.00 70 1010.9
20260510052522 17 182 0.0 3.2 0.00 0.76 0.00 70 1010.8
20260510051522 17 182 0.0 1.6 0.00 0.76 0.00 69 1010.7
20260510050517 17 182 0.0 3.2 0.00 0.76 0.00 69 1010.7
20260510045520 17 0.0 3.2 0.00 0.76 0.76 70 1010.8
20260510044521 17 182 0.0 3.2 0.00 0.76 0.76 70 1010.8
20260510043521 17 0.0 0.0 0.00 0.76 0.76 69 1010.7
20260510042536 18 182 0.0 3.2 0.00 0.76 0.76 69 1010.7
20260510041541 18 0.0 3.2 0.00 0.76 0.76 68 1010.7
20260510040520 18 182 0.0 3.2 0.00 0.76 0.76 66 1010.6
20260510035520 18 200 0.0 4.8 0.00 0.76 0.76 66 1010.6
20260510034521 19 209 0.0 3.2 0.00 0.76 0.76 65 1010.5
20260510033521 19 209 0.0 3.2 0.00 0.76 0.76 65 1010.5
20260510032516 19 209 0.0 3.2 0.00 0.76 0.76 65 1010.4
20260510031536 20 209 0.0 3.2 0.00 0.76 0.76 63 1010.3
20260510030520 20 209 0.0 3.2 0.00 0.76 0.76 65 1010.2
20260510025520 20 209 0.0 3.2 0.00 0.76 0.76 66 1010.1
20260510024521 20 0.0 1.6 0.00 0.76 0.76 65 1010.1
20260510023520 20 209 0.0 3.2 0.00 0.76 0.76 64 1010.0
20260510022521 20 209 0.0 3.2 0.00 0.76 0.76 64 1009.9
20260510021515 20 209 0.0 3.2 0.00 0.76 0.76 66 1009.8
20260510020521 20 209 0.0 3.2 0.00 0.76 0.76 68 1009.7
20260510015541 20 209 0.0 3.2 0.00 0.76 0.76 69 1009.5
20260510014521 20 0.0 0.0 0.00 0.76 0.76 70 1009.4
20260510013541 21 0.0 0.0 0.00 0.76 0.76 69 1009.2
20260510012521 21 0.0 0.0 0.00 0.76 0.76 71 1009.2
20260510011521 21 0.0 0.0 0.00 0.76 0.76 70 1009.0
20260510010515 21 0.0 0.0 0.00 0.76 0.76 69 1009.0
20260510005520 22 0.0 0.0 0.00 0.76 0.76 68 1008.9
20260510004520 22 0.0 0.0 0.00 0.76 0.76 68 1008.8
20260510003521 22 209 0.0 3.2 0.00 0.76 0.76 64 1008.7
20260510002601 23 209 0.0 3.2 0.00 0.76 0.76 62 1008.5
20260510001541 23 209 0.0 4.8 0.00 0.76 0.76 61 1008.5
20260510000516 23 209 0.0 9.7 0.00 0.76 0.76 60 1008.4
20260509235520 24 176 0.0 6.4 0.00 0.76 0.76 57 1008.4
20260509234541 25 176 0.0 9.7 0.00 0.76 0.76 57 1008.3
20260509233521 25 183 4.8 12.9 0.00 0.76 0.76 54 1008.4
20260509232541 25 179 3.2 6.4 0.00 0.76 0.76 54 1008.4
20260509231520 25 193 1.6 9.7 0.00 0.76 0.76 56 1008.4
20260509230521 25 186 3.2 9.7 0.00 0.76 0.76 55 1008.4
20260509225515 26 184 4.8 12.9 0.00 0.76 0.76 53 1008.4
20260509224520 26 223 3.2 12.9 0.00 0.76 0.76 54 1008.4
20260509223541 26 206 3.2 8.0 0.00 0.76 0.76 53 1008.3
20260509222546 26 203 1.6 11.3 0.00 0.76 0.76 52 1008.2
20260509221521 26 199 3.2 8.0 0.00 0.76 0.76 51 1008.1
20260509220520 26 210 1.6 14.5 0.00 0.76 0.76 53 1008.2
20260509215516 26 186 3.2 9.7 0.00 0.76 0.76 54 1008.1
20260509214515 26 189 3.2 9.7 0.00 0.76 0.76 55 1008.1
20260509213520 26 198 3.2 11.3 0.00 0.76 0.76 54 1008.1
20260509212520 26 205 3.2 9.7 0.00 0.76 0.76 57 1008.1
20260509211520 26 232 1.6 11.3 0.00 0.76 0.76 56 1008.2
20260509210539 26 237 3.2 12.9 0.00 0.76 0.76 55 1008.3
20260509205520 26 177 3.2 12.9 0.00 0.76 0.76 56 1008.2
20260509204515 26 268 3.2 11.3 0.00 0.76 0.76 57 1008.5
20260509203521 26 209 1.6 9.7 0.00 0.76 0.76 55 1008.7
20260509202520 25 264 4.8 12.9 0.00 0.76 0.76 56 1008.8
20260509201521 25 235 4.8 12.9 0.00 0.76 0.76 58 1009.0
20260509200520 25 240 3.2 16.1 0.00 0.76 0.76 55 1009.1
20260509195521 25 229 1.6 11.3 0.00 0.76 0.76 53 1009.1